Latest Weather Observations for Dalby

IDQ60801

Issued at 12:05 pm EST Thursday 23 October 2014 (issued every 30 minutes, with the page automatically refreshed every 10 minutes)

About weather observations | Map of weather stations | Latest weather observations for QLD | Other Formats
Station Details ID: 041522 Name: DALBY AIRPORT Lat: -27.16 Lon: 151.26 Height: 343.9 m
Data from the previous 72 hours. | See also: Recent months at Dalby
Date/Time
EST
Temp
°C
App
Temp
°C
Dew
Point
Rel
Hum
%
Delta-T
°C
Wind Press
QNH
hPa
Press
MSL
hPa
Rain
since 9 am
mm
Dir
 
Spd
km/h
Gust
km/h
Spd
kts
Gust
kts
23/12:00pm 26.1 23.2 8.1 32 9.8 WSW 13 20 7 11 1020.1 1018.8 0.0
23/11:30am 26.5 24.8 8.5 32 9.9 WNW 7 15 4 8 1020.6 1019.4 0.0
23/11:00am 25.2 22.1 8.7 35 9.0 WSW 15 24 8 13 1021.1 1019.8 0.0
23/10:30am 24.8 22.0 9.9 39 8.3 W 15 20 8 11 1021.6 1020.3 0.0
23/10:00am 23.0 21.4 10.1 44 7.1 ENE 9 15 5 8 1022.0 1020.7 0.0
23/09:30am 21.2 19.2 10.1 49 6.1 NNW 11 17 6 9 1022.4 1021.1 0.0
23/09:00am 19.9 17.5 10.0 53 5.4 WNW 13 19 7 10 1023.1 1021.9 0.0
23/08:30am 19.1 18.6 10.6 58 4.7 NW 4 9 2 5 1023.1 1021.9 0.0
23/08:00am 17.7 16.1 10.1 61 4.1 WNW 9 17 5 9 1023.1 1021.9 0.0
23/07:30am 16.7 14.4 10.3 66 3.4 WSW 13 17 7 9 1023.6 1022.4 0.0
23/07:00am 15.4 13.1 10.4 72 2.7 WSW 13 17 7 9 1023.1 1021.9 0.0
23/06:30am 13.8 11.7 9.8 77 2.1 WSW 11 13 6 7 1022.6 1021.3 0.0
23/06:00am 12.0 11.9 9.4 84 1.3 CALM 0 0 0 0 1022.3 1021.0 0.0
23/05:30am 9.8 9.2 7.4 85 1.2 CALM 0 0 0 0 1022.0 1020.7 0.0
23/05:00am 9.4 7.3 6.7 83 1.3 NE 7 9 4 5 1021.5 1020.2 0.0
23/04:30am 10.7 10.3 8.1 84 1.3 CALM 0 0 0 0 1021.2 1019.9 0.0
23/04:00am 11.5 10.0 8.5 82 1.5 SSW 6 7 3 4 1021.1 1019.8 0.0
23/03:30am 11.6 9.2 8.8 83 1.4 SW 11 11 6 6 1021.4 1020.1 0.0
23/03:00am 12.4 10.2 9.4 82 1.5 W 11 13 6 7 1021.6 1020.3 0.0
23/02:30am 12.5 12.3 9.1 80 1.7 CALM 0 0 0 0 1021.7 1020.4 0.0
23/02:00am 13.5 11.9 10.1 80 1.8 SE 9 11 5 6 1021.7 1020.4 0.0
23/01:30am 12.8 10.5 9.1 78 1.9 ESE 11 13 6 7 1021.7 1020.4 0.0
23/01:00am 13.5 11.0 9.6 77 2.0 E 13 13 7 7 1021.8 1020.5 0.0
23/12:30am 14.2 11.7 9.8 75 2.3 ESE 13 15 7 8 1022.2 1020.9 0.0
23/12:00am 14.8 11.6 10.0 73 2.5 E 17 19 9 10 1022.4 1021.1 0.0
 
Date/Time
EST
Temp
°C
App
Temp
°C
Dew
Point
Rel
Hum
%
Delta-T
°C
Wind Press
QNH
hPa
Press
MSL
hPa
Rain
since 9 am
mm
Dir
 
Spd
km/h
Gust
km/h
Spd
kts
Gust
kts
22/11:30pm 15.6 12.1 10.2 70 2.9 ENE 19 24 10 13 1022.4 1021.1 0.0
22/11:00pm 15.8 12.2 9.9 68 3.1 ENE 19 24 10 13 1022.5 1021.2 0.0
22/10:30pm 16.3 12.1 9.7 65 3.5 E 22 30 12 16 1022.2 1020.9 0.0
22/10:00pm 16.8 12.6 9.7 63 3.8 E 22 28 12 15 1022.1 1020.8 0.0
22/09:30pm 17.4 12.8 9.6 60 4.2 E 24 30 13 16 1022.1 1020.8 0.0
22/09:00pm 18.3 12.8 9.1 55 4.9 E 28 35 15 19 1022.0 1020.7 0.0
22/08:30pm 19.1 14.0 9.3 53 5.3 ENE 26 33 14 18 1021.7 1020.4 0.0
22/08:00pm 20.2 14.2 8.8 48 6.1 ENE 30 39 16 21 1021.4 1020.1 0.0
22/07:30pm 20.7 15.9 7.3 42 7.0 ENE 22 28 12 15 1021.2 1019.9 0.0
22/07:00pm 21.0 16.5 6.2 38 7.5 E 19 24 10 13 1020.8 1019.6 0.0
22/06:30pm 22.0 17.7 5.4 34 8.4 E 17 20 9 11 1020.5 1019.3 0.0
22/06:00pm 24.0 19.2 5.8 31 9.4 E 20 24 11 13 1020.4 1019.2 0.0
22/05:30pm 25.5 19.7 6.2 29 10.1 ESE 26 35 14 19 1020.3 1019.1 0.0
22/05:00pm 26.0 21.5 6.1 28 10.4 SE 19 28 10 15 1020.2 1019.0 0.0
22/04:30pm 25.8 21.7 6.4 29 10.3 ESE 17 22 9 12 1020.1 1018.8 0.0
22/04:00pm 26.1 22.4 6.2 28 10.5 E 15 19 8 10 1020.0 1018.7 0.0
22/03:30pm 27.0 22.5 6.9 28 10.8 E 20 26 11 14 1020.1 1018.8 0.0
22/03:00pm 26.5 22.5 6.5 28 10.6 ESE 17 26 9 14 1020.2 1019.0 0.0
22/02:30pm 26.4 23.2 6.9 29 10.4 SSE 13 20 7 11 1020.6 1019.4 0.0
22/02:00pm 26.0 21.4 6.6 29 10.3 E 20 32 11 17 1021.0 1019.7 0.0
22/01:30pm 26.3 21.0 6.9 29 10.4 ESE 24 32 13 17 1021.5 1020.2 0.0
22/01:00pm 25.9 22.4 7.0 30 10.1 ESE 15 28 8 15 1021.9 1020.6 0.0
22/12:30pm 25.2 23.0 7.8 33 9.4 ENE 9 20 5 11 1022.4 1021.1 0.0
22/12:00pm 24.9 20.8 8.0 34 9.1 E 19 22 10 12 1022.9 1021.7 0.0
22/11:30am 24.7 21.2 8.6 36 8.8 ESE 17 26 9 14 1023.5 1022.3 0.0
22/11:00am 24.1 19.3 8.9 38 8.3 ESE 24 28 13 15 1024.1 1022.8 0.0
22/10:30am 23.0 19.9 8.7 40 7.7 ESE 15 30 8 16 1024.5 1023.2 0.0
22/10:00am 22.0 18.9 8.9 43 7.1 ESE 15 20 8 11 1025.0 1023.7 0.0
22/09:30am 21.9 17.6 9.4 45 6.8 E 22 30 12 16 1025.2 1023.9 0.0
22/09:00am 21.1 16.5 9.7 48 6.2 ESE 24 33 13 18 1025.5 1024.3 0.0
22/08:30am 20.0 14.6 9.6 51 5.6 E 28 35 15 19 1025.5 1024.3 0.0
22/08:00am 19.4 14.6 10.4 56 4.9 E 26 41 14 22 1025.5 1024.3 0.0
22/07:30am 18.2 14.4 11.0 63 4.0 E 22 32 12 17 1025.4 1024.2 0.0
22/07:00am 16.3 12.4 10.8 70 3.0 E 22 28 12 15 1025.2 1023.9 0.0
22/06:30am 14.8 11.7 10.2 74 2.4 E 17 24 9 13 1025.1 1023.8 0.0
22/06:00am 13.6 10.4 10.0 79 1.9 ESE 17 19 9 10 1024.9 1023.6 0.0
22/05:30am 12.4 9.1 9.6 83 1.4 ESE 17 20 9 11 1024.7 1023.4 0.0
22/05:00am 11.8 8.4 9.2 84 1.3 SE 17 19 9 10 1024.6 1023.3 0.0
22/04:30am 11.3 8.6 8.9 85 1.2 SE 13 13 7 7 1024.5 1023.2 0.0
22/04:00am 11.2 8.8 8.6 84 1.3 ESE 11 13 6 7 1024.4 1023.1 0.0
22/03:30am 12.1 9.8 9.1 82 1.5 ESE 11 15 6 8 1024.5 1023.2 0.0
22/03:00am 12.2 9.5 8.9 80 1.7 ESE 13 15 7 8 1024.4 1023.1 0.0
22/02:30am 13.1 10.9 9.2 77 2.0 E 11 15 6 8 1024.5 1023.2 0.0
22/02:00am 14.0 11.0 9.2 73 2.5 ESE 15 17 8 9 1024.8 1023.5 0.0
22/01:30am 14.8 11.1 9.4 70 2.8 ESE 19 24 10 13 1025.0 1023.7 0.0
22/01:00am 15.7 11.5 9.6 67 3.2 E 22 28 12 15 1025.2 1023.9 0.0
22/12:30am 16.1 12.4 10.0 67 3.3 E 20 26 11 14 1025.7 1024.5 0.0
22/12:00am 16.5 13.5 10.6 68 3.2 E 17 24 9 13 1025.8 1024.6 0.0
 
Date/Time
EST
Temp
°C
App
Temp
°C
Dew
Point
Rel
Hum
%
Delta-T
°C
Wind Press
QNH
hPa
Press
MSL
hPa
Rain
since 9 am
mm
Dir
 
Spd
km/h
Gust
km/h
Spd
kts
Gust
kts
21/11:30pm 17.3 13.3 11.8 70 3.1 E 24 33 13 18 1026.4 1025.2 0.0
21/11:00pm 17.0 14.0 11.9 72 2.8 E 19 22 10 12 1026.7 1025.5 0.0
21/10:30pm 17.2 13.7 12.1 72 2.9 E 22 28 12 15 1026.5 1025.3 0.0
21/10:00pm 17.6 13.8 12.3 71 3.0 E 24 33 13 18 1026.2 1025.0 0.0
21/09:30pm 18.1 14.3 12.5 70 3.2 ENE 24 30 13 16 1026.4 1025.2 0.0
21/09:00pm 18.5 15.1 12.5 68 3.4 ENE 22 28 12 15 1026.3 1025.1 0.0
21/08:30pm 19.3 14.8 12.6 65 3.8 ENE 28 35 15 19 1025.7 1024.5 0.0
21/08:00pm 20.0 16.2 12.3 61 4.4 ENE 24 32 13 17 1025.3 1024.1 0.0
21/07:30pm 20.6 16.9 10.1 51 5.8 E 20 26 11 14 1024.9 1023.6 0.0
21/07:00pm 21.5 17.0 10.0 48 6.3 ENE 24 30 13 16 1024.6 1023.3 0.0
21/06:30pm 22.3 17.7 9.8 45 6.9 ENE 24 32 13 17 1024.3 1023.0 0.0
21/06:00pm 23.2 18.7 9.9 43 7.3 ENE 24 30 13 16 1023.9 1022.7 0.0
21/05:30pm 24.3 19.7 9.8 40 8.1 E 24 30 13 16 1023.6 1022.4 0.0
21/05:00pm 25.4 21.3 10.1 38 8.6 E 22 28 12 15 1023.2 1022.0 0.0
21/04:30pm 26.3 21.8 10.0 36 9.2 E 24 35 13 19 1022.9 1021.7 0.0
21/04:00pm 26.4 22.2 9.7 35 9.3 E 22 32 12 17 1022.8 1021.6 0.0
21/03:30pm 26.5 23.1 10.6 37 9.1 ESE 19 26 10 14 1023.0 1021.8 0.0
21/03:00pm 26.2 21.8 10.4 37 8.9 E 24 35 13 19 1023.1 1021.9 0.0
21/02:30pm 26.2 22.6 10.4 37 9.0 E 20 35 11 19 1023.2 1022.0 0.0
21/02:00pm 25.1 21.7 11.3 42 7.9 ENE 20 32 11 17 1023.6 1022.4 0.0
21/01:30pm 25.7 22.5 11.8 42 8.1 ENE 20 26 11 14 1024.2 1022.9 0.0
21/01:00pm 25.0 21.6 11.2 42 7.9 E 20 32 11 17 1024.7 1023.4 0.0
21/12:30pm 24.5 20.7 12.5 47 7.0 E 24 33 13 18 1025.3 1024.1 0.0
21/12:00pm 23.1 19.3 12.4 51 6.2 ESE 24 32 13 17 1025.9 1024.7 0.0
21/11:30am 22.9 19.7 13.1 54 5.7 E 22 30 12 16 1026.4 1025.2 0.0
21/11:00am 22.6 18.5 12.8 54 5.7 E 26 33 14 18 1026.6 1025.4 0.0
21/10:30am 22.2 17.8 13.0 56 5.4 E 28 35 15 19 1026.9 1025.7 0.0
21/10:00am 21.7 18.5 13.1 58 5.0 E 22 32 12 17 1027.1 1025.8 0.0
21/09:30am 21.4 18.5 12.8 58 5.0 E 20 28 11 15 1027.1 1025.8 0.0
21/09:00am 21.3 17.7 13.0 59 4.8 E 24 35 13 19 1027.2 1025.9 0.0
21/08:30am 20.9 18.1 13.1 61 4.5 E 20 28 11 15 1026.9 1025.7 0.0
21/08:00am 19.4 17.1 12.9 66 3.7 ESE 17 24 9 13 1027.1 1025.8 0.0
21/07:30am 18.9 16.8 12.4 66 3.7 ESE 15 20 8 11 1026.8 1025.6 0.0
21/07:00am 17.9 15.1 12.6 71 3.0 E 19 24 10 13 1026.5 1025.3 0.0
21/06:30am 17.0 14.8 12.1 73 2.7 E 15 20 8 11 1026.1 1024.9 0.0
21/06:00am 16.5 15.1 12.3 76 2.3 E 11 17 6 9 1025.7 1024.5 0.0
21/05:30am 14.3 11.8 10.9 80 1.8 E 15 17 8 9 1025.5 1024.3 0.0
21/05:00am 14.7 12.8 10.5 76 2.2 ESE 11 13 6 7 1025.3 1024.1 0.0
21/04:30am 16.1 14.5 11.5 74 2.5 SE 11 13 6 7 1025.0 1023.7 0.0
21/04:00am 14.8 13.4 11.0 78 2.0 SE 9 11 5 6 1025.0 1023.7 0.0
21/03:30am 15.6 14.7 11.4 76 2.3 SE 7 11 4 6 1025.0 1023.7 0.0
21/03:00am 15.1 14.0 10.7 75 2.4 SE 7 9 4 5 1025.0 1023.7 0.0
21/02:30am 15.0 12.7 10.6 75 2.4 E 13 15 7 8 1025.1 1023.8 0.0
21/02:00am 15.1 13.5 10.1 72 2.6 E 9 13 5 7 1025.2 1023.9 0.0
21/01:30am 16.0 14.1 10.5 70 3.0 E 11 15 6 8 1025.3 1024.1 0.0
21/01:00am 16.4 13.0 10.7 69 3.1 E 19 26 10 14 1025.5 1024.3 0.0
21/12:30am 16.7 14.0 10.5 67 3.4 E 15 20 8 11 1025.6 1024.4 0.0
21/12:00am 17.5 13.1 10.4 63 3.8 E 24 32 13 17 1025.4 1024.2 0.0
 
Date/Time
EST
Temp
°C
App
Temp
°C
Dew
Point
Rel
Hum
%
Delta-T
°C
Wind Press
QNH
hPa
Press
MSL
hPa
Rain
since 9 am
mm
Dir
 
Spd
km/h
Gust
km/h
Spd
kts
Gust
kts
20/11:30pm 18.1 12.3 10.7 62 4.0 E 32 43 17 23 1025.6 1024.4 0.0
20/11:00pm 18.8 12.8 10.1 57 4.7 E 32 43 17 23 1025.8 1024.6 0.0
20/10:30pm 19.4 14.1 9.9 54 5.2 E 28 35 15 19 1025.5 1024.3 0.0
20/10:00pm 20.3 14.7 10.1 52 5.6 E 30 41 16 22 1025.3 1024.1 0.0
20/09:30pm 21.2 15.6 10.1 49 6.1 E 30 39 16 21 1025.0 1023.7 0.0
20/09:00pm 21.8 16.5 9.7 46 6.6 E 28 33 15 18 1024.5 1023.2 0.0
20/08:30pm 22.7 16.8 9.1 42 7.4 E 30 41 16 22 1024.1 1022.8 0.0
20/08:00pm 22.7 18.2 6.0 34 8.6 E 19 28 10 15 1023.5 1022.3 0.0
20/07:30pm 22.9 18.6 5.3 32 9.0 E 17 19 9 10 1022.9 1021.7 0.0
20/07:00pm 24.6 19.8 5.4 29 9.9 E 20 24 11 13 1022.4 1021.1 0.0
20/06:30pm 25.9 20.0 6.0 28 10.4 E 26 32 14 17 1021.7 1020.4 0.0
20/06:00pm 27.3 21.0 5.6 25 11.4 E 28 33 15 18 1021.0 1019.7 0.0
20/05:30pm 28.9 22.2 5.7 23 12.3 ENE 30 37 16 20 1020.3 1019.1 0.0
20/05:00pm 29.9 25.6 5.2 21 13.1 ENE 17 24 9 13 1020.0 1018.7 0.0
20/04:30pm 30.7 26.0 5.9 21 13.4 E 20 28 11 15 1019.8 1018.5 0.0
20/04:00pm 30.1 26.6 5.4 21 13.1 SE 13 19 7 10 1019.8 1018.5 0.0
20/03:30pm 30.6 26.2 6.5 22 13.1 SE 19 28 10 15 1019.9 1018.6 0.0
20/03:00pm 30.4 26.9 5.6 21 13.2 SE 13 24 7 13 1020.1 1018.8 0.0
20/02:30pm 29.9 25.9 6.5 23 12.7 ESE 17 32 9 17 1020.5 1019.3 0.0
20/02:00pm 29.9 26.0 7.2 24 12.4 SE 17 30 9 16 1021.0 1019.7 0.0
20/01:30pm 28.3 24.1 5.8 24 11.9 SE 17 26 9 14 1021.6 1020.3 0.0
20/01:00pm 27.7 24.4 6.5 26 11.3 S 13 24 7 13 1022.0 1020.7 0.0
20/12:30pm 28.1 24.9 6.8 26 11.5 S 13 30 7 16 1022.7 1021.5 0.0

Other Formats:

Comma delimited format used in spreadsheet applications
http://www.bom.gov.au/fwo/IDQ60801/IDQ60801.94542.axf

JavaScript Object Notation format (JSON) in row-major order
http://www.bom.gov.au/fwo/IDQ60801/IDQ60801.94542.json